H1 CPF 2 NER 2022 10 13 9 286 01 glonass116 H2 0907001 9116 36111 2022 10 13 0 0 0 2022 10 16 23 45 0 900 1 1 0 0 0 1 H9 10 0 59865 0.00000 0 -6447104.237 -17951730.471 16934286.022 10 0 59865 900.00000 0 -6421355.279 -19900677.392 14607631.499 10 0 59865 1800.00000 0 -6534332.516 -21542441.706 11997226.630 10 0 59865 2700.00000 0 -6741317.599 -22836887.821 9153794.095 10 0 59865 3600.00000 0 -6991651.748 -23755415.367 6132576.101 10 0 59865 4500.00000 0 -7231089.292 -24282017.629 2992259.872 10 0 59865 5400.00000 0 -7404310.709 -24413828.804 -206163.742 10 0 59865 6300.00000 0 -7457488.322 -24161137.833 -3400586.127 10 0 59865 7200.00000 0 -7340795.659 -23546868.894 -6528987.847 10 0 59865 8100.00000 0 -7010753.811 -22605551.078 -9530642.956 10 0 59865 9000.00000 0 -6432315.128 -21381821.139 -12347297.097 10 0 59865 9900.00000 0 -5580595.708 -19928522.732 -14924296.321 10 0 59865 10800.00000 0 -4442183.001 -18304482.310 -17211644.849 10 0 59865 11700.00000 0 -3015962.707 -16572055.134 -19164971.501 10 0 59865 12600.00000 0 -1313429.422 -14794544.274 -20746386.399 10 0 59865 13500.00000 0 641533.020 -13033600.409 -21925211.913 10 0 59865 14400.00000 0 2813393.483 -11346710.734 -22678574.266 10 0 59865 15300.00000 0 5156207.909 -9784881.405 -22991844.852 10 0 59865 16200.00000 0 7615296.044 -8390609.540 -22858923.173 10 0 59865 17100.00000 0 10129292.058 -7196228.724 -22282356.155 10 0 59865 18000.00000 0 12632484.941 -6222696.342 -21273291.517 10 0 59865 18900.00000 0 15057352.625 -5478872.672 -19851265.875 10 0 59865 19800.00000 0 17337185.489 -4961321.199 -18043831.181 10 0 59865 20700.00000 0 19408690.846 -4654638.018 -15886026.123 10 0 59865 21600.00000 0 21214470.619 -4532295.989 -13419702.008 10 0 59865 22500.00000 0 22705269.273 -4557967.810 -10692715.440 10 0 59865 23400.00000 0 23841898.257 -4687271.980 -7758002.913 10 0 59865 24300.00000 0 24596756.517 -4869867.674 -4672554.818 10 0 59865 25200.00000 0 24954883.284 -5051809.653 -1496308.583 10 0 59865 26100.00000 0 24914498.813 -5178063.140 1709017.416 10 0 59865 27000.00000 0 24487010.244 -5195071.606 4881126.244 10 0 59865 27900.00000 0 23696482.275 -5053267.942 7958357.251 10 0 59865 28800.00000 0 22578594.927 -4709421.817 10880889.080 10 0 59865 29700.00000 0 21179132.408 -4128722.826 13591906.847 10 0 59865 30600.00000 0 19552066.799 -3286510.203 16038710.298 10 0 59865 31500.00000 0 17757317.453 -2169574.914 18173740.887 10 0 59865 32400.00000 0 15858280.436 -776978.002 19955507.629 10 0 59865 33300.00000 0 13919231.903 879650.454 21349393.726 10 0 59865 34200.00000 0 12002714.353 2776345.435 22328328.396 10 0 59865 35100.00000 0 10167015.147 4877565.418 22873311.148 10 0 59865 36000.00000 0 8463842.477 7137444.445 22973778.731 10 0 59865 36900.00000 0 6936295.507 9501486.357 22627807.921 10 0 59865 37800.00000 0 5617212.828 11908631.334 21842150.563 10 0 59865 38700.00000 0 4527967.342 14293609.315 20632100.382 10 0 59865 39600.00000 0 3677756.970 16589482.738 19021194.208 10 0 59865 40500.00000 0 3063419.705 18730273.209 17040753.419 10 0 59865 41400.00000 0 2669779.528 20653563.020 14729274.343 10 0 59865 42300.00000 0 2470507.486 22302963.306 12131679.346 10 0 59865 43200.00000 0 2429460.544 23630346.153 9298443.014 10 0 59865 44100.00000 0 2502440.732 24597747.666 6284610.295 10 0 59865 45000.00000 0 2639299.456 25178862.658 3148725.781 10 0 59865 45900.00000 0 2786297.212 25360068.733 -48304.949 10 0 59865 46800.00000 0 2888618.225 25140937.207 -3244399.586 10 0 59865 47700.00000 0 2892933.024 24534209.881 -6377505.577 10 0 59865 48600.00000 0 2749899.980 23565243.075 -9386805.127 10 0 59865 49500.00000 0 2416499.494 22270942.700 -12213895.150 10 0 59865 50400.00000 0 1858101.709 20698235.427 -14803919.024 10 0 59865 51300.00000 0 1050179.917 18902140.340 -17106628.330 10 0 59865 52200.00000 0 -20403.174 16943521.941 -19077354.208 10 0 59865 53100.00000 0 -1354591.128 14886618.590 -20677869.821 10 0 59865 54000.00000 0 -2940846.063 12796449.402 -21877127.801 10 0 59865 54900.00000 0 -4755390.611 10736207.437 -22651858.940 10 0 59865 55800.00000 0 -6762970.500 8764747.417 -22987021.063 10 0 59865 56700.00000 0 -8918107.190 6934271.885 -22876089.847 10 0 59865 57600.00000 0 -11166789.604 5288311.410 -22321186.217 10 0 59865 58500.00000 0 -13448535.736 3860082.128 -21333037.853 10 0 59865 59400.00000 0 -15698739.481 2671288.227 -19930775.363 10 0 59865 60300.00000 0 -17851206.105 1731418.431 -18141566.566 10 0 59865 61200.00000 0 -19840771.528 1037565.185 -16000095.384 10 0 59865 62100.00000 0 -21605896.900 574773.356 -13547894.688 10 0 59865 63000.00000 0 -23091130.590 316903.199 -10832545.299 10 0 59865 63900.00000 0 -24249334.770 227970.802 -7906756.087 10 0 59865 64800.00000 0 -25043583.345 263908.989 -4827342.567 10 0 59865 65700.00000 0 -25448651.459 374673.879 -1654123.579 10 0 59865 66600.00000 0 -25452033.650 506607.516 1551242.384 10 0 59865 67500.00000 0 -25054447.546 604955.946 4726458.325 10 0 59865 68400.00000 0 -24269801.546 616435.396 7809803.553 10 0 59865 69300.00000 0 -23124627.576 491737.026 10741337.866 10 0 59865 70200.00000 0 -21657002.599 187863.265 13464071.083 10 0 59865 71100.00000 0 -19915004.175 -329804.169 15925074.676 10 0 59865 72000.00000 0 -17954764.964 -1085793.022 18076513.361 10 0 59865 72900.00000 0 -15838207.928 -2093259.335 19876576.418 10 0 59865 73800.00000 0 -13630557.197 -3353191.499 21290290.618 10 0 59865 74700.00000 0 -11397728.885 -4854133.984 22290199.035 10 0 59865 75600.00000 0 -9203710.824 -6572443.421 22856892.904 10 0 59865 76500.00000 0 -7108040.380 -8473067.261 22979386.533 10 0 59865 77400.00000 0 -5163485.243 -10510813.248 22655328.328 10 0 59865 78300.00000 0 -3414023.214 -12632057.474 21891044.181 10 0 59865 79200.00000 0 -1893204.436 -14776820.354 20701412.543 10 0 59865 80100.00000 0 -622963.363 -16881124.428 19109573.724 10 0 59865 81000.00000 0 387071.103 -18879536.046 17146479.008 10 0 59865 81900.00000 0 1139739.798 -20707785.216 14850288.236 10 0 59865 82800.00000 0 1649986.268 -22305354.399 12265627.405 10 0 59865 83700.00000 0 1943975.300 -23617928.252 9442720.588 10 0 59865 84600.00000 0 2057735.418 -24599601.967 6436412.915 10 0 59865 85500.00000 0 2035383.692 -25214755.787 3305103.713 10 0 59866 0.00000 0 1927008.874 -25439517.288 109610.906 10 0 59866 900.00000 0 1786303.149 -25262750.236 -3088012.746 10 0 59866 1800.00000 0 1668043.553 -24686528.477 -6225683.924 10 0 59866 2700.00000 0 1625530.076 -23726075.548 -9242495.587 10 0 59866 3600.00000 0 1708089.468 -22409172.342 -12079898.446 10 0 59866 4500.00000 0 1958750.711 -20775058.026 -14682835.635 10 0 59866 5400.00000 0 2412190.782 -18872870.351 -17000808.371 10 0 59866 6300.00000 0 3093037.860 -16759690.627 -18988852.170 10 0 59866 7200.00000 0 4014603.913 -14498275.003 -20608405.010 10 0 59866 8100.00000 0 5178100.639 -12154566.502 -21828051.201 10 0 59866 9000.00000 0 6572372.438 -9795091.048 -22624127.120 10 0 59866 9900.00000 0 8174158.476 -7484345.428 -22981177.602 10 0 59866 10800.00000 0 9948873.974 -5282285.059 -22892254.651 10 0 59866 11700.00000 0 11851879.221 -3242015.214 -22359052.930 10 0 59866 12600.00000 0 13830184.524 -1407780.829 -21391879.436 10 0 59866 13500.00000 0 15824521.143 186662.445 -20009457.759 10 0 59866 14400.00000 0 17771692.943 1519229.062 -18238570.228 10 0 59866 15300.00000 0 19607111.495 2580187.898 -16113544.281 10 0 59866 16200.00000 0 21267409.479 3372322.317 -13675592.287 10 0 59866 17100.00000 0 22693023.623 3910560.110 -10972016.850 10 0 59866 18000.00000 0 23830639.177 4221089.467 -8055296.442 10 0 59866 18900.00000 0 24635393.434 4339998.868 -4982068.622 10 0 59866 19800.00000 0 25072745.536 4311498.840 -1812030.339 10 0 59866 20700.00000 0 25119933.501 4185801.258 1393223.211 10 0 59866 21600.00000 0 24766956.689 4016746.556 4571398.374 10 0 59866 22500.00000 0 24017041.736 3859279.987 7660717.703 10 0 59866 23400.00000 0 22886571.808 3766884.555 10601125.195 10 0 59866 24300.00000 0 21404481.665 3789080.206 13335458.112 10 0 59866 25200.00000 0 19611143.563 3969096.026 15810562.017 10 0 59866 26100.00000 0 17556790.565 4341814.807 17978326.859 10 0 59866 27000.00000 0 15299543.211 4932077.770 19796623.759 10 0 59866 27900.00000 0 12903122.063 5753421.891 21230124.221 10 0 59866 28800.00000 0 10434341.753 6807303.892 22250985.961 10 0 59866 29700.00000 0 7960491.010 8082844.390 22839392.306 10 0 59866 30600.00000 0 5546707.677 9557103.787 22983935.087 10 0 59866 31500.00000 0 3253457.766 11195879.027 22681833.879 10 0 59866 32400.00000 0 1134222.917 12954988.580 21938987.720 10 0 59866 33300.00000 0 -766508.229 14781992.478 20769858.464 10 0 59866 34200.00000 0 -2414861.996 16618275.963 19197188.164 10 0 59866 35100.00000 0 -3788748.546 18401410.052 17251555.925 10 0 59866 36000.00000 0 -4878530.175 20067690.598 14970782.714 10 0 59866 36900.00000 0 -5687162.459 21554749.806 12399195.551 10 0 59866 37800.00000 0 -6229803.789 22804130.945 9586765.238 10 0 59866 38700.00000 0 -6532911.164 23763718.448 6588134.242 10 0 59866 39600.00000 0 -6632861.565 24389921.378 3461553.741 10 0 59866 40500.00000 0 -6574158.320 24649518.615 267750.564 10 0 59866 41400.00000 0 -6407299.218 24521088.174 -2931253.737 10 0 59866 42300.00000 0 -6186397.385 23995960.547 -6073348.341 10 0 59866 43200.00000 0 -5966656.281 23078655.976 -9097539.481 10 0 59866 44100.00000 0 -5801806.178 21786787.211 -11945133.978 10 0 59866 45000.00000 0 -5741610.986 20150431.802 -14560876.768 10 0 59866 45900.00000 0 -5829551.106 18211000.086 -16894020.486 10 0 59866 46800.00000 0 -6100780.460 16019646.067 -18899306.525 10 0 59866 47700.00000 0 -6580444.099 13635287.356 -20537838.915 10 0 59866 48600.00000 0 -7282427.593 11122316.385 -21777834.627 10 0 59866 49500.00000 0 -8208591.259 8548097.686 -22595236.350 10 0 59866 50400.00000 0 -9348521.926 5980354.790 -22974176.405 10 0 59866 51300.00000 0 -10679813.443 3484554.543 -22907283.301 10 0 59866 52200.00000 0 -12168865.073 1121396.568 -22395825.283 10 0 59866 53100.00000 0 -13772165.372 -1055488.719 -21449688.135 10 0 59866 54000.00000 0 -15438008.936 -3001538.946 -20087187.493 10 0 59866 54900.00000 0 -17108575.305 -4682873.360 -18334718.849 10 0 59866 55800.00000 0 -18722283.970 -6077454.853 -16226251.421 10 0 59866 56700.00000 0 -20216327.743 -7175752.910 -13802674.992 10 0 59866 57600.00000 0 -21529278.892 -7980880.618 -11111011.589 10 0 59866 58500.00000 0 -22603659.015 -8508200.731 -8203506.702 10 0 59866 59400.00000 0 -23388364.768 -8784418.075 -5136617.206 10 0 59866 60300.00000 0 -23840847.190 -8846197.184 -1969915.320 10 0 59866 61200.00000 0 -23928952.465 -8738364.089 1235069.970 10 0 59866 62100.00000 0 -23632345.921 -8511768.926 4416051.313 10 0 59866 63000.00000 0 -22943458.542 -8220900.443 7511197.473 10 0 59866 63900.00000 0 -21867915.341 -7921354.103 10460339.585 10 0 59866 64800.00000 0 -20424426.801 -7667261.734 13206145.184 10 0 59866 65700.00000 0 -18644147.258 -7508792.334 15695236.579 10 0 59866 66600.00000 0 -16569526.640 -7489830.500 17879231.347 10 0 59866 67500.00000 0 -14252703.278 -7645931.409 19715684.478 10 0 59866 68400.00000 0 -11753504.689 -8002639.382 21168913.816 10 0 59866 69300.00000 0 -9137139.692 -8574241.617 22210692.833 10 0 59866 70200.00000 0 -6471677.856 -9363010.180 22820797.565 10 0 59866 71100.00000 0 -3825420.993 -10358964.721 22987397.476 10 0 59866 72000.00000 0 -1264275.796 -11540166.393 22707282.946 10 0 59866 72900.00000 0 1150763.658 -12873531.139 21985925.366 10 0 59866 73800.00000 0 3365919.565 -14316128.707 20837368.816 10 0 59866 74700.00000 0 5336625.123 -15816913.289 19283955.573 10 0 59866 75600.00000 0 7029128.440 -17318813.628 17355890.731 10 0 59866 76500.00000 0 8421639.916 -18761095.213 15090654.271 10 0 59866 77400.00000 0 9504976.502 -20081895.647 12532271.858 10 0 59866 78300.00000 0 10282677.320 -21220826.902 9730458.404 10 0 59866 79200.00000 0 10770587.257 -22121535.167 6739650.910 10 0 59866 80100.00000 0 10995927.401 -22734110.630 3617949.458 10 0 59866 81000.00000 0 10995892.798 -23017245.726 425987.058 10 0 59866 81900.00000 0 10815837.879 -22940050.888 -2774249.512 10 0 59866 82800.00000 0 10507127.147 -22483451.167 -5920624.568 10 0 59866 83700.00000 0 10124742.824 -21641104.752 -8952060.410 10 0 59866 84600.00000 0 9724751.230 -20419804.482 -11809722.583 10 0 59866 85500.00000 0 9361735.461 -18839345.237 -14438160.240 10 0 59867 0.00000 0 9086303.177 -16931862.581 -16786379.393 10 0 59867 900.00000 0 8942774.773 -14740668.897 -18808829.605 10 0 59867 1800.00000 0 8967149.900 -12318637.851 -20466282.266 10 0 59867 2700.00000 0 9185437.604 -9726200.615 -21726588.160 10 0 59867 3600.00000 0 9612420.864 -7029039.145 -22565297.033 10 0 59867 4500.00000 0 10250907.524 -4295570.768 -22966129.003 10 0 59867 5400.00000 0 11091499.469 -1594327.860 -22921288.981 10 0 59867 6300.00000 0 12112890.262 1008659.603 -22431618.296 10 0 59867 7200.00000 0 13282679.474 3452370.897 -21506580.658 10 0 59867 8100.00000 0 14558670.367 5683087.824 -20164082.569 10 0 59867 9000.00000 0 15890597.494 7656380.168 -18430131.182 10 0 59867 9900.00000 0 17222212.583 9338701.643 -16338335.719 10 0 59867 10800.00000 0 18493642.056 10708530.801 -13929261.295 10 0 59867 11700.00000 0 19643917.774 11757010.111 -11249646.985 10 0 59867 12600.00000 0 20613575.040 12488057.184 -8351502.655 10 0 59867 13500.00000 0 21347208.651 12917944.235 -5291101.590 10 0 59867 14400.00000 0 21795879.216 13074364.113 -2127888.202 10 0 59867 15300.00000 0 21919267.842 12995022.872 1076677.928 10 0 59867 16200.00000 0 21687487.693 12725818.924 4260318.942 10 0 59867 17100.00000 0 21082475.172 12318686.372 7361152.902 10 0 59867 18000.00000 0 20098901.122 11829194.378 10318900.985 10 0 59867 18900.00000 0 18744562.696 11314004.847 13076063.635 10 0 59867 19800.00000 0 17040238.444 10828296.678 15579042.239 10 0 59867 20700.00000 0 15019011.892 10423266.155 17779183.992 10 0 59867 21600.00000 0 12725091.233 10143809.770 19633729.400 10 0 59867 22500.00000 0 10212173.928 10026487.838 21106643.935 10 0 59867 23400.00000 0 7541424.108 10097855.264 22169317.746 10 0 59867 24300.00000 0 4779146.720 10373230.167 22801120.119 10 0 59867 25200.00000 0 1994254.841 10855952.486 22989798.276 10 0 59867 26100.00000 0 -744364.808 11537163.976 22731713.098 10 0 59867 27000.00000 0 -3370479.182 12396119.046 22031907.555 10 0 59867 27900.00000 0 -5823020.533 13401013.565 20904006.713 10 0 59867 28800.00000 0 -8048378.602 14510296.973 19369951.377 10 0 59867 29700.00000 0 -10002378.999 15674412.767 17459570.520 10 0 59867 30600.00000 0 -11651866.462 16837894.352 15210000.677 10 0 59867 31500.00000 0 -12975828.077 17941728.258 12664963.449 10 0 59867 32400.00000 0 -13966010.856 18925885.373 9873914.994 10 0 59867 33300.00000 0 -14627009.195 19731913.625 6891083.900 10 0 59867 34200.00000 0 -14975819.827 20305482.824 3774416.227 10 0 59867 35100.00000 0 -15040884.364 20598774.261 584448.287 10 0 59867 36000.00000 0 -14860660.971 20572614.116 -2616870.697 10 0 59867 36900.00000 0 -14481786.471 20198260.445 -5767382.830 10 0 59867 37800.00000 0 -13956907.438 19458768.111 -8805928.971 10 0 59867 38700.00000 0 -13342272.559 18349873.797 -11673535.679 10 0 59867 39600.00000 0 -12695188.539 16880363.420 -14314558.387 10 0 59867 40500.00000 0 -12071447.250 15071906.037 -16677758.673 10 0 59867 41400.00000 0 -11522832.865 12958360.594 -18717294.946 10 0 59867 42300.00000 0 -11094814.068 10584583.919 -20393607.630 10 0 59867 43200.00000 0 -10824518.434 8004788.981 -21674182.274 10 0 59867 44100.00000 0 -10739074.070 5280520.993 -22534176.351 10 0 59867 45000.00000 0 -10854388.131 2478334.722 -22956898.178 10 0 59867 45900.00000 0 -11174413.455 -332731.486 -22934129.181 10 0 59867 46800.00000 0 -11690934.260 -3083781.178 -22466283.583 10 0 59867 47700.00000 0 -12383880.137 -5708676.819 -21562402.505 10 0 59867 48600.00000 0 -13222155.618 -8146540.853 -20239982.438 10 0 59867 49500.00000 0 -14164951.091 -10344038.053 -18524640.994 10 0 59867 50400.00000 0 -15163480.646 -12257345.128 -16449625.830 10 0 59867 51300.00000 0 -16163074.482 -13853726.568 -14055175.541 10 0 59867 52200.00000 0 -17105538.461 -15112651.761 -11387744.132 10 0 59867 53100.00000 0 -17931681.840 -16026407.366 -8499103.516 10 0 59867 54000.00000 0 -18583906.855 -16600179.953 -5445340.914 10 0 59867 54900.00000 0 -19008750.828 -16851606.017 -2285770.313 10 0 59867 55800.00000 0 -19159273.137 -16809808.830 918220.811 10 0 59867 56700.00000 0 -18997185.608 -16513963.321 4104366.886 10 0 59867 57600.00000 0 -18494635.532 -16011450.105 7210738.133 10 0 59867 58500.00000 0 -17635565.020 -15355677.243 10176948.649 10 0 59867 59400.00000 0 -16416588.291 -14603662.441 12945334.638 10 0 59867 60300.00000 0 -14847348.763 -13813478.476 15462079.309 10 0 59867 61200.00000 0 -12950339.914 -13041670.412 17678262.025 10 0 59867 62100.00000 0 -10760196.415 -12340754.170 19550811.069 10 0 59867 63000.00000 0 -8322484.342 -11756902.467 21043341.436 10 0 59867 63900.00000 0 -5692040.364 -11327915.930 22126861.410 10 0 59867 64800.00000 0 -2930928.538 -11081565.072 22780334.520 10 0 59867 65700.00000 0 -106099.237 -11034372.897 22991086.255 10 0 59867 66600.00000 0 2713152.826 -11190889.332 22755048.034 10 0 59867 67500.00000 0 5457826.422 -11543487.838 22076834.004 10 0 59867 68400.00000 0 8061838.484 -12072692.604 20969649.399 10 0 59867 69300.00000 0 10464527.153 -12748022.410 19455032.351 10 0 59867 70200.00000 0 12612929.974 -13529315.538 17562434.156 10 0 59867 71100.00000 0 14463743.300 -14368479.868 15328645.995 10 0 59867 72000.00000 0 15984882.196 -15211594.373 12797083.150 10 0 59867 72900.00000 0 17156576.837 -16001273.381 10016940.435 10 0 59867 73800.00000 0 17971960.735 -16679193.795 7042235.136 10 0 59867 74700.00000 0 18437127.324 -17188678.500 3930756.138 10 0 59867 75600.00000 0 18570653.773 -17477226.692 742939.739 10 0 59867 76500.00000 0 18402613.250 -17498884.035 -2459305.793 10 0 59867 77400.00000 0 17973118.300 -17216352.256 -5613803.703 10 0 59867 78300.00000 0 17330457.732 -16602748.734 -8659316.621 10 0 59867 79200.00000 0 16528906.357 -15642941.427 -11536735.117 10 0 59867 80100.00000 0 15626300.600 -14334402.375 -14190223.597 10 0 59867 81000.00000 0 14681482.578 -12687543.276 -16568301.381 10 0 59867 81900.00000 0 13751720.560 -10725518.294 -18624838.145 10 0 59867 82800.00000 0 12890214.420 -8483501.661 -20319944.751 10 0 59867 83700.00000 0 12143790.846 -6007469.331 -21620742.710 10 0 59867 84600.00000 0 11550884.881 -3352534.543 -22501998.001 10 0 59867 85500.00000 0 11139892.229 -580905.637 -22946607.474 10 0 59868 0.00000 0 10927961.132 2240449.890 -22945928.996 10 0 59868 900.00000 0 10920274.136 5042340.706 -22499949.182 10 0 59868 1800.00000 0 11109849.997 7755978.443 -21617285.652 10 0 59868 2700.00000 0 11477873.629 10315593.147 -20315023.658 10 0 59868 3600.00000 0 11994540.770 12660926.068 -18618389.710 10 0 59868 4500.00000 0 12620382.000 14739498.618 -16560268.040 10 0 59868 5400.00000 0 13308010.852 16508563.682 -14180568.570 10 0 59868 6300.00000 0 14004222.813 17936658.709 -11525457.804 10 0 59868 7200.00000 0 14652357.055 19004696.216 -8646467.004 10 0 59868 8100.00000 0 15194821.416 19706546.636 -5599494.380 10 0 59868 9000.00000 0 15575673.951 20049089.524 -2443720.371 10 0 59868 9900.00000 0 15743151.646 20051731.339 759542.884 10 0 59868 10800.00000 0 15652038.838 19745410.557 3948045.349 10 0 59868 11700.00000 0 15265774.407 19171132.504 7059812.558 10 0 59868 12600.00000 0 14558207.663 18378096.196 10034354.506 10 0 59868 13500.00000 0 13514927.679 17421492.788 12813845.891 10 0 59868 14400.00000 0 12134108.741 16360069.106 15344254.169 10 0 59868 15300.00000 0 10426835.122 15253559.615 17576392.962 10 0 59868 16200.00000 0 8416890.346 14160095.593 19466880.070 10 0 59868 17100.00000 0 6140018.655 13133701.084 20978981.383 10 0 59868 18000.00000 0 3642688.678 12221981.255 22083324.328 10 0 59868 18900.00000 0 980410.065 11464100.522 22758467.264 10 0 59868 19800.00000 0 -1784327.520 10889135.281 22991314.129 10 0 59868 20700.00000 0 -4584407.807 10514870.226 22777366.593 10 0 59868 21600.00000 0 -7350636.534 10347088.415 22120809.215 10 0 59868 22500.00000 0 -10014379.971 10379384.413 21034426.138 10 0 59868 23400.00000 0 -12510184.207 10593507.891 19539351.078 10 0 59868 24300.00000 0 -14778267.059 10960222.701 17664655.447 10 0 59868 25200.00000 0 -16766779.616 11440644.839 15446782.492 10 0 59868 26100.00000 0 -18433743.939 11988002.520 12928838.297 10 0 59868 27000.00000 0 -19748586.997 12549743.830 10159753.267 10 0 59868 27900.00000 0 -20693207.652 13069902.664 7193330.253 10 0 59868 28800.00000 0 -21262532.981 13491622.766 4087197.844 10 0 59868 29700.00000 0 -21464541.673 13759732.869 901689.304 10 0 59868 30600.00000 0 -21319754.526 13823263.756 -2301330.933 10 0 59868 31500.00000 0 -20860214.476 13637800.473 -5459669.966 10 0 59868 32400.00000 0 -20127999.998 13167569.828 -8512014.722 10 0 59868 33300.00000 0 -19173335.310 12387174.569 -11399122.089 10 0 59868 34200.00000 0 -18052377.589 11282900.512 -14064967.530 10 0 59868 35100.00000 0 -16824774.847 9853540.936 -16457829.912 10 0 59868 36000.00000 0 -15551097.445 8110702.793 -18531291.680 10 0 59868 36900.00000 0 -14290251.282 6078581.116 -20245135.292 10 0 59868 37800.00000 0 -13096981.128 3793210.057 -21566119.046 10 0 59868 38700.00000 0 -12019568.484 1301220.771 -22468617.900 10 0 59868 39600.00000 0 -11097820.059 -1341843.144 -22935117.376 10 0 59868 40500.00000 0 -10361430.578 -4073583.777 -22956551.558 10 0 59868 41400.00000 0 -9828787.910 -6827096.318 -22532478.956 10 0 59868 42300.00000 0 -9506270.129 -9533509.383 -21671092.937 10 0 59868 43200.00000 0 -9388063.514 -12124614.016 -20389066.424 10 0 59868 44100.00000 0 -9456508.891 -14535473.260 -18711233.462 10 0 59868 45000.00000 0 -9682961.662 -16706904.729 -16670113.265 10 0 59868 45900.00000 0 -10029129.381 -18587733.719 -14305285.261 10 0 59868 46800.00000 0 -10448830.679 -20136723.622 -11662626.472 10 0 59868 47700.00000 0 -10890101.483 -21324103.473 -8793425.397 10 0 59868 48600.00000 0 -11297559.711 -22132629.141 -5753389.046 10 0 59868 49500.00000 0 -11614928.387 -22558133.963 -2601562.051 10 0 59868 50400.00000 0 -11787610.229 -22609545.883 600821.111 10 0 59868 51300.00000 0 -11765204.242 -22308370.645 3791528.321 10 0 59868 52200.00000 0 -11503857.074 -21687663.040 6908542.888 10 0 59868 53100.00000 0 -10968348.738 -20790529.868 9891273.221 10 0 59868 54000.00000 0 -10133823.399 -19668228.122 12681735.052 10 0 59868 54900.00000 0 -8987090.905 -18377938.976 15225682.605 10 0 59868 55800.00000 0 -7527442.934 -16980311.861 17473666.188 10 0 59868 56700.00000 0 -5766948.138 -15536882.445 19381995.364 10 0 59868 57600.00000 0 -3730212.624 -14107473.492 20913588.912 10 0 59868 58500.00000 0 -1453614.743 -12747688.095 22038695.064 10 0 59868 59400.00000 0 1015954.865 -11506600.551 22735468.306 10 0 59868 60300.00000 0 3622796.315 -10424741.625 22990391.905 10 0 59868 61200.00000 0 6304476.359 -9532462.340 22798538.259 10 0 59868 62100.00000 0 8994191.436 -8848744.347 22163662.400 10 0 59868 63000.00000 0 11623320.293 -8380506.060 21098127.044 10 0 59868 63900.00000 0 14124060.500 -8122432.895 19622660.761 10 0 59868 64800.00000 0 16432039.894 -8057337.904 17765953.983 10 0 59868 65700.00000 0 18488794.780 -8157036.823 15564100.535 10 0 59868 66600.00000 0 20244012.247 -8383699.955 13059895.435 10 0 59868 67500.00000 0 21657443.684 -8691623.230 10302002.423 10 0 59868 68400.00000 0 22700410.263 -9029343.090 7344007.268 10 0 59868 69300.00000 0 23356838.065 -9342005.350 4243375.286 10 0 59868 70200.00000 0 23623780.303 -9573887.405 1060333.430 10 0 59868 71100.00000 0 23511405.504 -9670966.634 -2143301.146 10 0 59868 72000.00000 0 23042452.960 -9583425.906 -5305322.914 10 0 59868 72900.00000 0 22251179.144 -9267989.747 -8364346.551 10 0 59868 73800.00000 0 21181840.107 -8689991.905 -11260998.545 10 0 59868 74700.00000 0 19886774.276 -7825086.464 -13939068.419 10 0 59868 75600.00000 0 18424166.742 -6660529.721 -16346597.254 10 0 59868 76500.00000 0 16855589.177 -5195978.095 -18436882.567 10 0 59868 77400.00000 0 15243418.745 -3443767.770 -20169380.322 10 0 59868 78300.00000 0 13648244.083 -1428663.354 -21510487.126 10 0 59868 79200.00000 0 12126366.611 812915.011 -22434188.028 10 0 59868 80100.00000 0 10727501.268 3234154.953 -22922557.928 10 0 59868 81000.00000 0 9492772.162 5779554.173 -22966107.441 10 0 59868 81900.00000 0 8453086.171 8386992.258 -22563966.847 10 0 59868 82800.00000 0 7627951.793 10990087.031 -21723904.714 10 0 59868 83700.00000 0 7024791.922 13520738.774 -20462180.713 10 0 59868 84600.00000 0 6638778.711 15911757.725 -18803235.123 10 0 59868 85500.00000 0 6453196.977 18099466.472 -16779220.457 99